STARLINK-11436, 62887

Orbit data source: Space-Track

STARLINK-11436, 62887 is a payload satellite owned by SpaceX/Seattle (US) in LEO that was launched on Tue, 04 Feb 2025 UTC via an FALCON 9 launch vehicle from the Air Force Eastern Test Range (AFETR). Payload-class satellites include a variety of spacecraft equipped with specific instruments for various scientific and technological missions. These include communications satellites like Starlink; space stations such as the ISS; scientific satellites like the Hubble; Earth observation satellites from companies like Planet Labs, Umbra, and HawkEye 360; GPS; miniature CubeSats for education and research; and military/defense satellites.

Loading next visibility...
Identifier
62887, 2025-024J
Orbit
LEO
Country
Flag of USUS
Related business
Manufacturer
SpaceX/Seattle
Mission
Operational Commercial Communications
Bus & Motor
STARLINK V2MD, Unknown motor
Mass
960 kg wet, ~910 kg dry
Launch date (UTC)
Icon of a cake. It is the launch day of the satellite!2025-02-04 (1 year ago)
Launch vehicle
FALCON 9
Launch site
Air Force Eastern Test Range (AFETR)
Object type
Payload
Rocket body
Debris
Shape & HBR
Box + 2 Pan, 18.1 m
Radar Cross Section
36.964 m², Large (>1 m²)

Expand to show TLE details & history
Last TLE update: 11 hours ago

TLE from 11 hours ago
0 STARLINK-11436
1 62887U 25024J   26035.28409010  .00223077  00000-0  16908-2 0  9991
2 62887  42.9991  22.7330 0002016 279.6815  80.3825 15.70908683 58210
Epoch: 2026-02-04T06:49Z
TLE epoch observation values (Epoch: 2026-02-04T06:49:05.384Z)
Latitude
-0.00002°
Longitude
146.00767°
Altitude
355.843 km
Speed
7.698 km/s
True Right ascension
01h 30m 55s
True Declination
0° 00' 00"
Sunlit
Object was in daylight at epoch
Visualization orbit readout
Latitude
Unknown
Longitude
Unknown
Altitude
Unknown
Speed
Unknown
Apparent Right ascension
Unknown
Apparent Declination
Unknown
Sunlit
N/A
Visualization observer readout
Local Sidereal Time
20:15:31
Azimuth
Unknown
Elevation
Unknown
Doppler factor
Unknown
Orbital elements
Apogee altitude
359.639 km
Perigee altitude
356.922 km
Semi-major axis
6,736.418 km
Eccentricity
0.0002
Inclination
42.9991°
RAAN
22.733°
Arg. of periapsis
279.6815°
True anomaly
80.40528°
Mean anomaly
80.3825°
Eccentric anomaly
80.39389°
Mean motion
3.92554 °/min
Orbital period
91.71 mins
BSTAR
0.0016908
Loading maneuver chart data...
Computing Atmospheric mass density...
Loading historical data...
Loading historical data...
Loading historical data...
Loading historical data...
Loading historical data...
Loading historical data...
Loading historical data...

Documentation

Showing up to 5 results
|